Погода в Пскенте

Узбекистан     40°53′53″N   69°21′04″E
темп.,
°C
ветер,
м/с
пор.,
м/с
влажн.,
%
обл.,
%
осадки,
мм/ч
давл.,
гПа
погр.,
м
1 марта, пн
пн123:00+4всв236457 0.0 102232
02:00+4в1259100 0.0 102122
05:00+4в2253100 0.0 102122
08:00+5всв225092 0.0 102123
11:00+12ю012946 0.0 1020277
14:00+15з11240 0.0 1019546
17:00+16юв11290 0.0 1019529
20:00+11вюв23490 0.0 102125
2 марта, вт
вт223:00+10юв46360 0.0 102280
02:00+9ююв233653 0.0 102233
05:00+8сз224076 0.0 102224
08:00+7с3345100 0.0 102355
11:00+12с3432100 0.0 1023328
14:00+14с3428100 0.0 1021581
17:00+14с3534100 0.0 1021515
20:00+11сз3449100 0.0 1023107
3 марта, ср
ср323:00+10сз1255100 0.0 102328
02:00+9юв2361100 0.1 102477
05:00+7зюз1169100 0.2 102429
08:00+8ю356696 0.0 1024193
11:00+11ююв335998 0.0 1023681
14:00+13ю225289 0.0 10211254
17:00+13юв445091 0.1 1021893
20:00+10юв466698 0.3 1022623
4 марта, чт
чт423:00+9в356999 1.8 1022194
02:00+8вюв356772 0.1 102086
05:00+7вюв126436 0.1 102027
08:00+8в22610 0.0 102057
11:00+14ю334617 0.0 1017420
14:00+16зюз2740100 0.1 10171194
17:00+12ю1263100 1.3 1018163
20:00+11юв697178 0.4 1020254
5 марта, пт
пт523:00+10юв237488 0.8 102248
02:00+8ссз698282 0.0 1023349
05:00+3ссз7119391 1.6 1026535
08:00+2св2494100 5.1 1030279
11:00+6сз346698 5.3 1029754
14:00+10св344210 0.0 10261185
17:00+10всв33455 0.0 10251010
20:00+7св236532 0.0 102562